HULIANWANG DIGUI-86

Last updated on Sat Oct 18 2025 00:02:07 GMT+0000 (Coordinated Universal Time)

1 65821U 25220E 25289.74024751 .00000053 00000+0 46823-4 0 9993 2 65821 86.4915 126.4420 0001611 110.8413 249.2915 13.63352242 2637
UTC large
Height (km)
Speed (km/s)
/
Latitude / Longitude
Inclination (degrees)
Orbital Period (minutes)
Azimuth
Elevation
Range (km)
Doppler Factor

Next 0 passes for location: London (51.5072 / 0.1276)

Sorry there are no passes over London.